User: anonymous   Login
Location: Unspecified
(0.0000°N, 0.0000°E)
Time: 04:04:59
(UTC+00:00)
Language:

HORYU 4 - Orbit

View from above orbital plane
View from above orbital plane
View from above satellite
View from above satellite

Ground track
Ground track

The orbit data is extracted from the following two-line orbital elements,

1 41340U 16012D   18022.74440142  .00000509  00000-0  32326-4 0  9995
2 41340  31.0045 152.3577 0013978  90.4983 269.7255 15.00865151106025
Epoch (UTC): 22 January 2018 17:51:56
Eccentricity: 0.0013978
inclination: 31.0045°
perigee height: 554 km
apogee height: 574 km
right ascension of ascending node: 152.3577°
argument of perigee: 90.4983°
revolutions per day: 15.00865151
mean anomaly at epoch: 269.7255°
orbit number at epoch: 10602

The dashed part of the orbit path shows where the satellite is in the earth's shadow,  

DLR